Hourly Data Report for October 26, 2019

All times are specified in Local Standard Time (LST). Add 1 hour to adjust for Daylight Saving Time where and when it is observed.

CORAL HARBOUR A
NUNAVUT
Current Station Operator: NAVCAN

64°11'36.000" N
83°21'34.000" W
62.20 m
2301002
71915
YZS

Download Data

Hourly Data (October 2019)
Hourly Data Report for October 26, 2019
TIME Temp Definition
°C
Dew Point Definition
°C
Rel Hum Definition
%
Wind Dir Definition
10's deg

Wind Spd Definition
km/h
Visibility Definition
km
Stn Press Definition
kPa
Hmdx Definition


Wind Chill Definition


Weather Definition


00:00 -4.6 -7.0 83 1 18 24.1 100.04   -11 LegendNANA
01:00 -7.2 -8.8 88 34 13 24.1 100.09   -13 Mainly Clear
02:00 -7.2 -8.9 87 36 18 24.1 100.15   -14 LegendNANA
03:00 -8.3 -10.0 88 36 15 24.1 100.22   -15 LegendNANA
04:00 -9.3 -10.8 89 36 16 24.1 100.28   -16 Mainly Clear
05:00 -9.9 -11.6 88 34 17 24.1 100.33   -17 LegendNANA
06:00 -10.3 -12.1 87 34 11 24.1 100.35   -16 LegendNANA
07:00 -10.1 -11.5 90 1 10 24.1 100.42   -15 Mainly Clear
08:00 -9.7 -11.3 88 35 18 24.1 100.47   -17 LegendNANA
09:00 -9.4 -11.3 86 1 13 24.1 100.52   -15 LegendNANA
10:00 -9.9 -12.3 83 32 13 24.1 100.57   -16 Mainly Clear
11:00 -9.3 -11.8 83 33 17 24.1 100.62   -16 LegendNANA
12:00 -8.6 -11.0 83 33 16 24.1 100.66   -15 LegendNANA
13:00 -8.3 -11.0 81 34 17 24.1 100.74   -15 Mostly Cloudy
14:00 -8.2 -10.9 82 35 18 24.1 100.78   -15 LegendNANA
15:00 -8.4 -10.9 83 34 13 24.1 100.81   -14 LegendNANA
16:00 -9.2 -11.4 84 34 20 24.1 100.83   -17 Mainly Clear
17:00 -10.4 -12.2 87 34 21 24.1 100.89   -19 LegendNANA
18:00 -11.5 -13.5 85 35 14 24.1 100.94   -18 LegendNANA
19:00 -12.2 -14.1 86 33 22 24.1 100.97   -21 Clear
20:00 -12.3 -14.0 87 34 18 24.1 101.00   -20 LegendNANA
21:00 -12.6 -14.6 85 33 21 24.1 101.04   -21 LegendNANA
22:00 -13.5 -15.3 86 33 17 24.1 101.06   -22 Clear
23:00 -12.8 -14.1 90 34 19 24.1 101.12   -21 LegendNANA

Notes on Data Quality.

Legend

  • E = Estimated
  • M = Missing
  • NA = Not Available
Date modified: